Regional Weather Roundup
Issued by NWS

Home | Current Version | Previous Version | Graphics & Text | Print | Product List | Glossary On
Versions: 1 2 3 4 5 6 7 8 9 10 11 12 13 14 15 16 17 18 19 20 21 22 23 24 25 26 27 28 29 30 31 32 33 34 35 36 37 38 39 40 41 42 43 44 45 46 47 48 49 50
000
ASUS43 KLSX 272359
RWRMO

WEATHER SUMMARY FOR MISSOURI
NATIONAL WEATHER SERVICE SPRINGFIELD MO
700 PM CDT FRI MAR 27 2015

NOTE: "FAIR" INDICATES FEW OR NO CLOUDS BELOW 12,000 FEET WITH NO
       SIGNIFICANT WEATHER AND/OR OBSTRUCTIONS TO VISIBILITY.
       CURRENT SKY AND/OR WEATHER CONDITIONS ARE NOT AVAILABLE FOR
       CHILLICOTHE AND FARMINGTON.

MOZ001>031-035>038-043-044-053-054-280100-
...NORTHERN AND WESTERN MISSOURI...

CITY           SKY/WX    TMP DP  RH WIND       PRES   REMARKS
KANSAS CTY INT CLOUDY    41  19  41 NW6       30.15S
6HR MIN TEMP:  39; 6HR MAX TEMP:  44;

KANSAS C DTWN  CLOUDY    44  17  33 NW7       30.16R
6HR MIN TEMP:  41; 6HR MAX TEMP:  47;

LEE`S SUMMIT   CLOUDY    42  16  34 N3        30.16R
6HR MIN TEMP:  40; 6HR MAX TEMP:  45;

ST JOSEPH      CLOUDY    41  18  39 NW6       30.16F
6HR MIN TEMP:  38; 6HR MAX TEMP:  43;

CHILLICOTHE      N/A     42  17  36 CALM      30.17R
6HR MIN TEMP:  40; 6HR MAX TEMP:  45;


$$
MOZ066>068-077>081-088>096-101>105-280100-
...SOUTHWEST MISSOURI...

CITY           SKY/WX    TMP DP  RH WIND       PRES   REMARKS
SPRINGFIELD    PTCLDY    43  22  43 NW7       30.12S
6HR MIN TEMP:  42; 6HR MAX TEMP:  48;

JOPLIN         CLOUDY    46  21  37 VRB6      30.15R
6HR MIN TEMP:  44; 6HR MAX TEMP:  49;


$$
MOZ032>034-039>042-045>050-055>058-069>072-280100-
...CENTRAL MISSOURI...

CITY           SKY/WX    TMP DP  RH WIND       PRES   REMARKS
COLUMBIA       MOCLDY    41  20  43 N3        30.14S
6HR MIN TEMP:  38; 6HR MAX TEMP:  44;

JEFFERSON CITY MOCLDY    42  17  36 N5        30.15S
6HR MIN TEMP:  39; 6HR MAX TEMP:  45;

ROLLA          PTCLDY    38  19  46 N6        30.12S
6HR MIN TEMP:  37; 6HR MAX TEMP:  42;

SEDALIA        CLOUDY    42  21  43 NW6       30.16R
6HR MIN TEMP:  40; 6HR MAX TEMP:  46;

OSAGE BEACH    MOCLDY    43  18  36 N3        30.14S

$$
MOZ051-052-059>065-280100-
...EAST CENTRAL MISSOURI...

CITY           SKY/WX    TMP DP  RH WIND       PRES   REMARKS
ST LOUIS INTL  PTCLDY    40  19  43 N9        30.16R
6HR MIN TEMP:  38; 6HR MAX TEMP:  44;

SPIRIT OF STL  PTCLDY    39  18  42 NE6       30.16R
6HR MIN TEMP:  38; 6HR MAX TEMP:  43;

ST CHARLES     CLEAR     39  20  46 NW8       30.16R
6HR MIN TEMP:  37; 6HR MAX TEMP:  43;


$$
MOZ072>076-082>087-097>100-106>115-280100-
...SOUTH CENTRAL AND SOUTHEAST MISSOURI...

CITY           SKY/WX    TMP DP  RH WIND       PRES   REMARKS
CAPE GIRARDEAU MOCLDY    39  21  48 NW12      30.16R
6HR MIN TEMP:  39; 6HR MAX TEMP:  41;

FARMINGTON     CLEAR     37  18  44 N7        30.17S
6HR MIN TEMP:  37; 6HR MAX TEMP:  39;

POPLAR BLUFF   CLEAR     43  22  43 N8        30.14S
6HR MIN TEMP:  43; 6HR MAX TEMP:  46;

WEST PLAINS    CLEAR     42  19  39 N6        30.12R
6HR MIN TEMP:  40; 6HR MAX TEMP:  48;


$$


USA.gov is the U.S. government's official web portal to all federal, state and local government web resources and services.